GLOBALSTAR M033 [-]

Last updated on Fri Dec 29 2023 00:02:56 GMT+0000 (Coordinated Universal Time)

1 25909U 99049C 23362.18259879 -.00000118 00000+0 -25619-3 0 9998 2 25909 51.9929 59.8016 0011375 246.2636 113.7018 12.20261658102903
UTC large
Height (km)
Speed (km/s)
/
Latitude / Longitude
Inclination (degrees)
Orbital Period (minutes)
Azimuth
Elevation
Range (km)
Doppler Factor

Next 0 passes for location: London (51.5072 / 0.1276)

Sorry there are no passes over London.